Location: Newark
(25.0000°N, 73.5000°E)
Time: 12:37:54
(UTC+00:00)

deb Explorer IX - All Passes

Search period start: 07 March 2021 00:00
Search period end: 17 March 2021 00:00
Orbit: 538 x 1101 km, 38.8° (Epoch: 06 March)

Date Brightness Start Highest point End Pass type
(mag) Time Alt. Az. Time Alt. Az. Time Alt. Az.
07 Mar - 00:03:00 10° NNW 00:06:15 22° NNE 00:09:43 10° ENE visible
07 Mar - 01:48:53 10° WNW 01:53:11 80° SW 01:58:08 10° SE daylight
07 Mar - 03:37:30 10° WSW 03:39:51 13° SW 03:42:22 10° S daylight
07 Mar - 16:29:31 10° S 16:33:10 18° SE 16:36:30 10° E night (unlit)
07 Mar - 18:14:52 10° WSW 18:19:53 79° NNW 18:24:14 10° NE night (unlit)
07 Mar - 20:03:44 10° WNW 20:06:56 19° NNW 20:09:58 10° NNE night (unlit)
07 Mar - 21:53:21 10° NNW 21:54:47 12° N 21:56:14 10° NNE night (unlit)
07 Mar - 23:39:22 10° NNW 23:42:34 22° NNE 23:45:54 10° ENE visible
08 Mar - 01:25:17 10° WNW 01:29:29 80° SW 01:34:15 10° SE daylight
08 Mar - 03:14:03 10° WSW 03:16:06 13° SW 03:18:16 10° SSW daylight
08 Mar - 16:05:30 10° S 16:09:25 19° SE 16:12:57 10° E night (unlit)
08 Mar - 17:50:58 10° WSW 17:56:10 79° NNW 18:00:37 10° NE night (unlit)
08 Mar - 19:39:53 10° WNW 19:43:14 20° NNW 19:46:22 10° NNE night (unlit)
08 Mar - 21:29:35 10° NNW 21:31:06 12° N 21:32:35 10° NNE night (unlit)
08 Mar - 23:15:44 10° NNW 23:18:53 21° NNE 23:22:08 10° ENE visible
09 Mar - 01:01:39 10° WNW 01:05:48 79° SSW 01:10:24 10° SE daylight
09 Mar - 02:50:38 10° WSW 02:52:22 12° SW 02:54:10 10° SSW daylight
09 Mar - 15:41:28 10° S 15:45:38 20° SE 15:49:23 10° E visible
09 Mar - 17:27:02 10° WSW 17:32:26 79° NNW 17:37:01 10° NE night (unlit)
09 Mar - 19:16:01 10° WNW 19:19:31 20° NNW 19:22:46 10° NNE night (unlit)
09 Mar - 21:05:46 10° NNW 21:07:24 12° N 21:08:59 10° NNE night (unlit)
09 Mar - 22:52:03 10° NNW 22:55:12 21° NNE 22:58:24 10° ENE visible
10 Mar - 00:38:01 10° WNW 00:42:06 78° SW 00:46:34 10° SE visible
10 Mar - 02:27:16 10° WSW 02:28:38 11° SW 02:30:02 10° SSW daylight
10 Mar - 15:17:26 10° S 15:21:50 21° SE 15:25:47 10° E visible
10 Mar - 17:03:05 10° WSW 17:08:40 79° NNW 17:13:23 10° NE night (unlit)
10 Mar - 18:52:06 10° WNW 18:55:48 21° NNW 18:59:11 10° NNE night (unlit)
10 Mar - 20:41:55 10° NNW 20:43:41 12° N 20:45:25 10° NNE night (unlit)
10 Mar - 22:28:21 10° NNW 22:31:31 21° NNE 22:34:40 10° ENE visible
11 Mar - 00:14:23 10° WNW 00:18:25 78° SW 00:22:46 10° SE visible
11 Mar - 02:03:59 10° SW 02:04:53 11° SW 02:05:50 10° SSW daylight
11 Mar - 14:53:22 10° S 14:58:01 22° SE 15:02:11 10° E visible
11 Mar - 16:39:07 10° WSW 16:44:54 80° NNW 16:49:46 10° NE visible
11 Mar - 18:28:10 10° WNW 18:32:04 22° NNW 18:35:35 10° NNE night (unlit)
11 Mar - 20:18:01 10° NNW 20:19:58 13° N 20:21:51 10° NNE night (unlit)
11 Mar - 22:04:37 10° NNW 22:07:49 21° NNE 22:10:58 10° ENE visible
11 Mar - 23:50:43 10° WNW 23:54:44 77° SSW 23:58:59 10° SE visible
12 Mar - 14:29:19 10° SSW 14:34:11 23° SE 14:38:33 10° E visible
12 Mar - 16:15:07 10° WSW 16:21:06 80° NNW 16:26:08 10° NE visible
12 Mar - 18:04:13 10° WNW 18:08:19 23° NNW 18:12:00 10° NNE night (unlit)
12 Mar - 19:54:05 10° NNW 19:56:15 13° N 19:58:19 10° NNE night (unlit)
12 Mar - 21:40:52 10° NNW 21:44:07 22° NNE 21:47:17 10° ENE night (unlit)
12 Mar - 23:27:02 10° WNW 23:31:03 76° SW 23:35:12 10° SE visible
13 Mar - 14:05:15 10° SSW 14:10:20 24° SE 14:14:54 10° E visible
13 Mar - 15:51:07 10° WSW 15:57:17 80° NNW 16:02:29 10° NE visible
13 Mar - 17:40:14 10° WNW 17:44:33 24° NNW 17:48:24 10° NE night (unlit)
13 Mar - 19:30:08 10° NNW 19:32:31 14° N 19:34:47 10° NNE night (unlit)
13 Mar - 21:17:04 10° NW 21:20:25 22° NNE 21:23:37 10° ENE night (unlit)
13 Mar - 23:03:19 10° WNW 23:07:23 76° SSW 23:11:28 10° SE visible
14 Mar - 13:41:10 10° SSW 13:46:28 25° SE 13:51:13 10° E visible
14 Mar - 15:27:05 10° WSW 15:33:27 80° NNW 15:38:50 10° NE visible
14 Mar - 17:16:14 10° WNW 17:20:46 25° NNW 17:24:48 10° NE visible
14 Mar - 19:06:08 10° NW 19:08:46 14° N 19:11:14 10° NNE night (unlit)
14 Mar - 20:53:15 10° NW 20:56:42 22° NNE 20:59:59 10° ENE night (unlit)
14 Mar - 22:39:35 10° WNW 22:43:42 75° SSW 22:47:43 10° SE visible
15 Mar - 13:17:07 10° SSW 13:22:34 25° SE 13:27:31 10° E daylight
15 Mar - 15:03:03 10° WSW 15:09:36 80° NNW 15:15:09 10° NE visible
15 Mar - 16:52:13 10° WNW 16:56:59 26° NNW 17:01:11 10° NE visible
15 Mar - 18:42:08 10° NW 18:45:01 15° N 18:47:41 10° NE night (unlit)
15 Mar - 20:29:24 10° NW 20:33:00 23° NNE 20:36:20 10° ENE night (unlit)
15 Mar - 22:15:51 10° WNW 22:20:00 75° SW 22:24:01 10° SE night (unlit)
16 Mar - 12:53:02 10° SSW 12:58:40 26° SE 13:03:47 10° E daylight
16 Mar - 14:39:01 10° WSW 14:45:43 81° NNW 14:51:27 10° NE visible
16 Mar - 16:28:11 10° WNW 16:33:10 26° NNW 16:37:33 10° NE visible
16 Mar - 18:18:07 10° NW 18:21:15 16° N 18:24:09 10° NE night (unlit)
16 Mar - 20:05:31 10° NW 20:09:16 24° NNE 20:12:43 10° ENE night (unlit)
16 Mar - 21:52:04 10° WNW 21:56:18 75° SW 22:00:19 10° SE night (unlit)
